Theta_e
312 312 314 313 313 301 308 308 304 307 312 309 304 304 305 305 302 299 308 307 310 316 317 318 320 320 321 325 325 325 328 330 332 329 330 331 334 336 336 339 340 343 343 344 345 346 347 347 346 346 347 346 345 344 346 347 349 349 352 352 351 353 353
313 315 315 314 314 313 309 303 307 312 313 311 305 298 303 300 296 299 304 302 305 305 302 319 319 319 320 322 323 324 326 328 327 328 330 332 333 335 337 342 342 342 343 344 346 346 346 347 348 347 348 348 347 347 348 345 349 350 352 352 352 352 353
314 315 314 311 313 315 309 308 315 305 302 301 307 303 296 296 296 298 302 306 306 306 306 313 315 314 318 322 325 325 324 326 326 329 331 333 335 335 337 340 341 342 341 343 344 346 348 348 348 349 347 349 348 349 350 348 350 350 351 352 352 353 354
312 313 311 303 307 312 314 314 310 312 307 304 302 304 303 302 297 297 299 304 303 311 310 312 313 316 320 321 322 322 323 324 326 328 332 335 335 336 339 336 340 342 341 342 343 345 347 348 347 348 348 348 347 348 348 349 350 350 350 350 353 352 353
311 305 308 305 308 306 306 307 306 308 309 311 309 308 304 302 301 300 298 298 303 312 317 316 315 317 319 319 323 325 326 329 328 334 334 334 333 335 339 337 337 339 343 342 345 346 347 349 349 349 347 347 348 348 348 349 348 349 349 350 351 352 352
306 307 312 311 310 310 309 308 306 307 305 304 301 300 308 306 302 297 299 297 305 314 321 319 318 321 321 322 325 326 327 327 329 333 337 335 333 336 335 334 334 339 346 345 345 347 347 346 347 347 347 347 348 349 348 348 348 349 351 349 349 350 351
306 310 313 315 314 314 312 311 308 310 309 308 303 295 301 306 306 307 304 301 305 316 321 322 322 322 322 325 325 326 325 326 330 332 335 337 337 337 336 338 340 339 343 346 346 347 348 348 346 347 349 348 348 349 350 350 349 349 350 350 351 351 350
311 312 314 315 314 313 311 311 311 309 305 307 305 305 307 303 304 303 305 301 308 319 327 328 328 326 324 328 324 326 326 327 328 333 338 335 340 339 340 345 345 341 343 346 349 348 348 349 348 349 349 350 349 349 349 350 349 350 351 350 349 349 349
304 306 309 310 313 313 309 308 310 311 311 311 310 309 310 303 304 304 301 297 303 316 325 326 326 323 325 323 326 326 326 328 331 336 339 339 339 340 341 342 342 341 342 344 345 348 348 349 350 350 350 350 350 350 350 349 349 349 351 349 347 348 351
295 295 296 298 302 307 309 311 310 311 309 309 308 303 307 299 308 307 304 302 311 317 323 322 322 322 323 326 324 325 327 329 330 335 337 340 340 343 341 340 340 337 336 339 341 344 347 349 349 350 351 352 351 351 350 350 350 351 349 347 350 345 347
301 305 309 309 311 308 305 308 309 309 311 311 310 309 306 302 305 304 309 308 307 313 317 317 321 319 321 323 324 323 325 327 331 335 336 337 340 339 340 344 340 335 335 338 337 341 345 348 350 350 350 351 350 350 350 348 351 351 350 349 348 349 346
308 308 308 310 310 307 308 308 308 310 309 310 309 305 303 314 304 300 309 312 307 312 313 315 316 321 322 322 323 323 325 326 327 331 335 335 337 339 342 342 338 336 337 338 341 343 342 345 351 351 351 350 351 349 350 350 352 350 351 349 345 345 346
308 310 310 311 310 309 309 308 309 309 309 309 307 307 309 309 305 302 311 313 308 311 313 314 317 323 323 322 324 325 327 327 329 331 331 335 334 335 336 342 341 337 336 337 335 337 340 344 344 345 349 351 351 350 349 351 350 347 350 351 348 347 346
309 309 310 310 309 309 309 309 309 309 309 309 309 309 309 309 310 310 309 312 309 311 314 315 318 323 322 324 326 328 328 327 329 328 330 330 331 332 336 340 344 342 340 339 335 335 338 341 343 346 346 348 347 346 344 346 348 348 348 347 347 347 345
306 308 309 309 309 309 307 309 309 309 309 309 310 309 310 311 310 310 310 309 309 315 320 320 331 330 329 325 325 326 329 328 328 328 328 329 330 332 338 340 344 345 346 343 341 341 341 340 341 345 348 346 345 343 345 346 346 349 348 346 345 347 346
304 308 308 309 310 309 308 307 308 308 308 307 309 308 311 309 308 309 309 308 309 320 319 322 325 326 325 326 327 327 328 327 328 326 326 327 332 334 336 341 344 345 344 340 340 340 344 345 345 345 346 350 348 345 346 348 349 352 349 347 348 349 349
303 307 308 308 308 307 304 305 307 310 310 311 311 311 312 312 311 310 307 309 315 319 320 318 321 322 326 326 326 325 326 329 327 326 327 328 330 330 339 337 341 345 341 341 343 344 344 344 346 348 349 350 349 351 352 352 354 353 352 353 352 352 353
304 307 307 308 304 297 299 310 313 312 309 310 308 308 310 313 313 312 314 315 319 316 317 317 319 321 324 328 332 331 331 330 329 328 329 330 335 335 336 338 339 342 337 341 343 346 344 345 347 349 351 353 353 354 354 355 354 353 352 352 352 350 351
303 307 307 301 296 298 310 313 314 314 314 313 311 311 312 313 316 315 315 315 316 319 318 317 326 326 326 328 331 330 330 332 330 329 333 334 333 336 341 339 341 341 341 342 344 345 346 346 346 347 349 352 355 354 351 353 352 351 352 351 352 352 351
308 305 304 295 297 308 312 313 314 316 315 315 313 311 313 314 316 317 316 316 316 320 320 320 329 327 325 327 334 335 330 329 330 328 331 341 338 336 337 343 345 339 341 344 345 348 352 351 349 351 351 353 353 353 352 353 354 352 349 349 347 348 350
301 304 303 302 310 307 309 310 311 312 311 313 311 306 310 314 317 317 317 317 317 319 321 323 326 328 325 322 325 334 334 332 331 329 331 332 333 336 338 334 345 343 344 346 348 349 349 353 353 352 354 354 354 353 352 352 354 351 350 350 345 341 343
306 302 300 302 301 298 305 312 314 318 318 317 317 314 309 316 317 318 318 325 324 320 320 322 327 329 321 318 323 327 329 328 327 328 331 332 333 332 333 338 344 346 347 349 351 350 350 352 354 354 355 354 353 352 351 351 352 351 350 347 349 344 341
305 303 299 298 297 302 312 311 314 316 318 317 317 311 305 316 319 320 319 318 321 322 324 323 326 320 312 317 323 329 329 327 327 327 330 332 333 334 336 336 336 342 349 350 352 353 353 351 353 355 355 355 353 351 352 351 351 350 349 350 350 348 347
304 303 301 299 304 303 310 313 314 315 317 317 314 302 303 324 324 322 323 323 320 321 329 328 324 318 312 315 326 330 330 328 327 329 332 333 332 335 344 337 340 348 352 352 351 352 352 353 355 356 355 354 351 350 351 352 351 349 350 351 354 355 348
305 304 303 304 306 315 316 315 318 318 318 315 305 300 315 326 323 324 324 326 331 330 328 324 319 323 326 333 334 328 328 326 328 331 331 336 336 335 335 340 350 349 350 349 348 348 351 353 355 355 354 352 350 350 351 350 348 349 353 354 352 351 354
304 307 303 304 307 316 317 319 317 320 313 303 303 321 329 329 323 324 324 328 331 330 328 325 324 328 329 332 329 329 329 328 330 333 332 333 336 343 347 350 347 343 342 345 347 346 349 351 351 351 350 348 348 349 347 346 346 354 353 353 355 353 353
308 308 305 301 296 319 320 323 316 326 313 320 326 327 326 326 325 326 327 329 329 331 328 326 334 332 328 328 329 328 328 327 330 333 333 340 342 343 344 343 342 342 345 347 347 347 349 350 351 350 349 347 347 347 345 345 349 350 352 351 352 351 352
304 302 301 300 316 320 324 321 315 321 325 330 329 328 325 326 325 326 326 327 329 328 331 329 326 331 330 329 328 330 331 331 332 333 338 342 342 341 339 338 339 345 345 347 349 349 349 350 350 349 348 346 345 344 343 351 351 351 351 351 351 350 351
314 308 313 318 323 325 323 323 322 325 329 332 331 329 327 327 326 331 328 326 326 328 332 331 331 332 331 335 333 328 331 332 331 334 338 339 340 339 338 338 343 344 345 348 348 348 349 348 349 349 348 345 344 342 346 351 350 348 348 348 348 348 348
321 320 319 323 322 322 322 322 326 324 324 329 330 330 329 331 334 331 328 328 327 327 335 331 328 329 330 329 329 338 332 331 333 340 339 343 344 340 340 342 343 345 348 349 348 346 347 348 346 347 346 345 342 343 347 348 348 347 347 346 346 345 347
312 304 319 318 320 321 321 322 325 326 325 326 329 331 332 333 334 334 335 333 331 329 329 328 330 330 329 327 329 335 336 333 334 335 341 342 341 339 342 344 346 347 347 346 346 345 343 345 345 344 343 344 344 345 346 344 345 347 346 346 345 345 346
313 311 318 322 322 323 323 323 323 323 325 326 330 331 333 335 336 336 336 336 335 334 330 331 334 336 333 329 335 334 335 340 338 340 342 342 341 346 347 346 348 347 346 345 344 343 343 343 344 343 343 342 343 343 343 342 343 344 344 344 343 344 343
315 317 322 322 325 323 324 324 326 327 326 328 330 332 333 333 334 336 338 338 337 337 336 339 338 336 334 334 338 332 336 338 338 343 342 343 343 349 347 347 349 348 347 344 344 343 343 344 343 342 341 341 342 342 342 344 345 343 343 343 344 344 343
310 313 315 320 314 315 322 323 324 326 327 329 330 331 332 333 333 335 336 338 340 337 332 332 332 333 337 338 339 332 335 340 339 343 342 342 342 346 347 346 348 347 348 346 343 342 343 344 343 342 341 341 342 342 343 344 344 343 343 343 343 343 344
307 319 320 323 324 320 326 324 327 326 327 329 329 330 331 332 333 334 336 337 337 337 339 334 333 335 336 335 337 338 338 340 345 345 344 344 345 346 345 345 346 346 346 345 344 343 343 343 342 341 341 341 342 342 344 344 345 344 344 345 343 341 342
318 321 322 324 324 318 323 325 326 325 329 326 326 330 331 332 333 334 337 338 336 336 337 333 331 333 335 333 333 334 338 340 343 343 345 346 346 346 345 345 346 345 344 344 342 342 342 342 341 341 339 340 343 343 345 345 345 345 345 345 343 343 343
318 325 324 325 325 324 324 324 324 324 327 329 327 326 328 330 332 335 338 337 336 336 335 332 333 335 335 335 336 340 339 340 344 345 346 346 345 344 343 343 345 344 344 344 344 343 342 341 340 340 339 340 342 342 344 343 342 344 344 343 342 343 346
Wind_Speed
2 8 9 11 5 8 5 7 5 2 6 7 6 7 8 9 6 4 6 2 8 7 5 3 2 4 7 9 8 7 8 9 6 5 4 2 1 4 8 2 4 3 2 3 4 4 4 5 7 7 7 8 9 11 10 11 11 11 11 11 12 11 11
10 9 10 10 10 7 6 7 2 5 10 7 2 7 4 3 7 7 5 3 5 5 1 4 6 5 6 6 8 7 7 7 6 6 5 2 4 4 8 3 1 4 3 4 4 5 7 7 8 8 8 8 9 9 11 10 10 11 9 10 10 11 11
9 11 6 9 11 10 10 10 12 11 3 3 2 4 6 6 6 2 4 5 4 2 2 4 4 2 5 5 3 5 6 6 5 3 0 5 2 6 5 3 6 3 4 5 6 6 9 10 9 8 8 7 7 6 6 7 8 9 10 9 10 9 10
9 8 7 9 10 12 11 8 9 10 9 8 6 1 6 6 7 5 3 6 5 4 8 7 4 5 5 4 4 3 2 1 0 3 3 5 6 5 5 5 4 6 6 6 8 8 9 11 11 9 10 8 8 8 7 7 8 8 9 9 9 11 10
5 7 5 8 7 6 11 8 5 7 7 4 1 6 7 4 8 3 3 2 2 3 8 10 11 3 3 2 4 3 3 2 3 6 4 2 1 6 5 9 2 6 6 8 9 9 9 9 10 10 9 9 8 7 9 9 9 10 10 10 10 10 9
7 5 5 6 9 2 6 6 6 4 6 6 7 7 6 8 8 1 2 3 4 3 3 5 6 8 7 6 6 5 4 3 2 4 7 5 3 5 10 10 4 3 5 7 9 10 8 8 8 9 9 8 8 8 7 7 9 8 9 9 9 9 9
8 8 10 6 10 6 7 5 7 6 8 4 6 4 6 8 6 9 5 4 3 2 3 3 3 7 6 8 9 7 5 4 4 3 5 6 5 5 7 1 7 5 5 6 10 10 10 9 8 8 8 8 8 8 8 7 7 8 8 7 7 8 8
10 13 10 9 8 9 10 7 7 7 9 9 10 7 4 6 8 7 6 5 3 3 2 4 5 8 6 4 5 5 5 5 4 5 2 3 4 4 5 6 5 9 8 3 7 7 7 8 8 8 8 7 8 8 8 8 9 9 8 8 8 8 8
6 9 9 9 5 6 6 7 8 9 7 7 6 5 6 7 4 7 7 3 3 1 6 5 4 7 7 7 5 6 6 5 4 3 2 2 2 3 4 2 11 10 8 1 3 4 6 7 7 7 7 7 7 7 8 8 8 10 7 5 6 4 3
8 6 6 5 4 4 7 11 11 11 9 10 7 5 3 5 4 6 1 4 4 6 6 8 8 4 5 5 5 5 4 5 5 4 5 4 3 4 3 2 11 8 1 8 8 2 4 5 6 7 7 7 7 6 6 6 6 4 5 3 5 6 4
8 7 5 9 5 8 12 9 8 11 11 8 8 4 4 6 6 7 3 4 5 9 9 12 12 8 7 9 7 7 5 5 4 4 2 3 3 1 2 4 7 6 4 4 5 10 5 5 6 6 6 7 6 6 5 2 3 4 5 6 5 7 6
13 13 13 12 11 14 13 12 11 10 11 9 8 6 6 3 5 4 3 4 8 5 15 11 11 14 11 8 8 6 5 3 5 5 4 3 3 3 4 7 7 5 5 6 4 4 2 6 3 3 4 4 5 6 5 6 5 5 6 8 8 6 5
15 15 14 13 14 13 14 16 12 11 10 9 11 9 9 8 6 6 5 5 7 3 9 4 3 14 9 9 10 8 6 5 4 5 5 5 4 4 4 6 6 4 2 2 2 4 5 5 3 1 2 3 5 6 6 5 5 6 5 6 5 6 5
14 14 15 14 16 15 15 16 15 13 14 13 12 11 9 11 6 6 7 3 7 6 10 3 5 13 6 9 8 7 6 6 5 5 5 4 3 2 4 6 7 7 8 8 3 2 4 6 7 6 5 5 4 2 5 5 7 4 4 2 3 4 5
14 16 18 18 17 15 16 15 15 14 14 15 15 12 11 8 6 8 7 6 7 2 4 4 14 12 8 9 8 9 7 6 7 6 4 4 5 4 8 6 8 6 5 7 7 7 9 7 7 3 2 3 8 7 5 6 7 3 4 5 6 6 7
11 12 14 15 13 14 16 16 16 15 14 14 10 11 8 5 5 8 5 5 4 5 3 9 15 12 12 11 10 10 7 7 6 5 6 5 5 5 5 7 6 6 9 11 4 6 5 6 6 5 3 6 8 10 8 6 6 6 7 6 7 7 6
11 12 14 15 15 15 15 14 14 14 14 14 13 12 12 9 4 3 4 3 2 3 4 3 9 13 13 11 10 7 7 5 5 5 5 5 6 4 8 9 7 10 13 7 7 6 3 2 3 5 6 6 5 5 7 6 6 6 6 5 5 4 3
9 12 15 13 13 14 10 8 13 10 13 13 14 13 12 11 7 3 3 3 4 4 4 4 8 15 9 10 6 7 5 5 6 7 5 5 3 4 5 7 9 14 10 5 5 5 6 5 3 2 2 3 5 5 5 6 7 6 6 5 5 5 5
11 10 12 12 14 12 11 12 10 9 13 12 13 14 11 10 6 7 5 4 4 3 0 6 14 12 7 8 12 9 6 5 5 6 6 7 5 3 5 5 9 17 11 8 5 3 3 5 2 3 3 2 1 5 1 4 5 5 4 5 4 4 5
8 9 8 12 10 9 11 12 13 13 10 9 13 15 12 8 7 5 7 5 6 9 6 5 16 12 13 8 8 7 7 6 8 8 5 5 5 3 3 3 10 17 9 8 6 6 5 6 5 5 4 3 3 5 7 5 4 5 5 3 2 1 2
11 9 10 12 9 13 12 11 11 11 10 7 7 8 5 6 5 5 7 6 7 4 4 5 11 15 12 7 7 10 11 13 11 8 9 8 6 5 5 5 11 17 11 7 6 5 4 4 6 6 5 5 5 4 4 5 6 6 6 4 5 2 2
10 11 11 10 10 12 9 11 15 9 5 7 9 6 10 7 9 8 8 5 4 4 4 6 10 6 3 5 4 8 9 7 6 9 9 6 6 7 6 10 15 15 10 8 7 7 7 5 5 6 6 6 5 5 5 4 4 4 5 7 6 9 10
10 12 13 12 11 8 4 9 11 12 12 15 14 10 10 2 6 5 6 7 6 4 8 10 6 3 4 4 5 8 8 7 10 3 6 12 6 7 8 11 10 14 11 8 8 7 7 7 7 6 6 6 5 4 4 4 4 4 3 2 5 6 8
12 11 11 12 8 9 9 13 14 16 6 10 7 10 6 8 10 11 15 17 8 3 12 8 3 1 5 2 5 7 8 9 7 11 2 1 6 9 6 8 9 14 11 9 8 7 6 7 7 7 6 5 5 4 4 4 4 3 3 3 2 4 8
13 15 12 11 9 7 7 5 8 7 4 3 7 7 4 7 8 10 9 13 9 13 9 3 3 4 2 6 6 5 7 11 9 11 11 9 7 7 8 13 15 14 12 9 8 8 7 7 8 7 7 5 4 3 3 3 3 2 2 4 3 2 5
13 11 10 9 8 4 16 7 6 4 3 8 6 2 7 3 8 10 9 12 10 5 3 3 3 7 6 5 6 10 6 2 6 15 10 10 9 13 16 13 11 9 9 11 10 8 6 6 4 4 4 4 4 3 2 2 0 3 2 2 4 5 7
10 6 6 4 7 4 14 17 4 14 6 5 3 4 7 6 6 6 8 6 7 6 3 3 8 6 7 6 8 11 5 4 7 6 7 12 14 13 13 11 9 9 10 10 9 8 6 5 4 3 3 4 4 2 2 1 2 1 2 2 2 2 3
7 10 9 2 1 2 7 10 6 4 7 3 7 5 3 5 4 5 3 6 5 6 5 3 4 5 4 5 3 11 10 4 9 9 6 11 12 12 10 9 9 11 9 9 7 7 5 4 3 2 2 2 2 2 1 4 3 2 1 2 1 2 3
4 3 4 2 3 4 2 2 2 6 8 8 8 8 5 5 4 6 4 2 2 1 4 4 2 5 3 3 4 7 15 16 10 8 7 12 10 10 8 10 10 10 10 10 8 7 5 5 4 3 2 0 2 1 2 4 3 0 1 0 1 2 4
6 8 3 2 3 3 1 3 10 6 3 9 8 8 6 3 5 4 5 6 4 3 2 2 1 1 2 5 4 4 10 9 8 7 8 10 9 9 9 10 10 10 11 9 9 8 6 6 3 2 3 2 0 2 3 2 1 1 0 0 2 2 4
4 4 6 7 4 4 7 3 5 9 8 5 7 7 5 5 4 5 3 6 7 7 3 4 3 4 5 9 7 9 7 8 8 8 10 8 8 8 10 10 10 10 10 9 9 8 7 4 4 3 2 2 2 2 1 2 2 3 1 1 1 1 3
7 8 8 6 5 5 4 1 2 3 4 7 7 7 8 7 7 6 6 5 7 7 8 7 6 7 7 8 6 7 6 2 11 9 8 7 6 7 9 10 10 10 9 9 9 8 7 5 4 2 3 1 1 1 2 3 3 1 1 0 2 2 3
7 5 8 9 5 6 8 1 6 4 3 4 6 7 8 9 9 8 8 6 7 8 8 7 7 9 10 8 7 8 6 7 7 5 8 6 6 8 10 10 9 8 8 8 9 8 7 5 4 3 2 1 0 1 1 3 3 2 2 2 1 3 2
8 2 2 3 4 3 6 9 5 4 5 5 5 6 8 9 9 8 9 9 9 5 9 11 10 12 8 7 5 11 8 8 9 8 9 7 8 9 10 9 9 9 7 8 8 7 6 5 4 4 3 2 1 1 1 2 1 3 2 2 3 3 3
5 6 5 2 5 3 7 8 7 6 6 5 6 6 7 9 9 10 9 9 10 8 9 9 11 12 11 11 8 7 8 8 7 10 11 10 10 10 11 10 10 9 8 8 7 7 6 5 5 4 3 3 2 3 3 2 2 2 2 3 3 3 4
6 2 3 2 2 1 4 7 7 4 5 5 7 6 7 8 9 9 9 8 11 13 11 10 12 15 14 14 14 10 7 8 8 10 11 11 11 10 10 10 9 9 8 7 8 7 6 6 5 4 3 3 3 2 2 2 2 2 2 2 3 3 2
6 4 3 3 5 4 5 6 7 7 5 2 4 6 7 8 8 8 8 9 9 12 13 1 11 10 11 11 10 8 9 10 12 11 11 10 12 10 11 11 10 9 7 6 6 6 7 6 6 5 4 4 4 4 2 1 2 4 4 2 3 3 2
Wind_Direction
60 222 191 201 213 278 104 268 282 215 341 303 318 288 296 310 306 311 296 68 88 103 115 65 130 104 132 139 136 155 142 151 192 217 224 192 55 288 266 197 242 145 186 130 118 126 138 139 161 153 150 154 157 153 169 178 174 174 169 173 174 178 181
209 264 300 302 247 230 282 272 107 14 285 291 258 298 339 337 330 316 357 110 159 215 177 221 122 145 153 150 142 142 155 175 183 206 182 174 211 227 273 258 154 155 205 138 133 125 132 136 136 145 144 145 160 164 172 167 178 171 177 175 176 182 179
230 166 241 252 274 305 277 272 336 309 6 303 281 312 275 293 273 260 154 305 114 246 200 161 138 245 138 144 118 137 167 187 187 103 159 241 171 234 264 333 237 167 200 168 145 141 132 137 140 140 144 165 154 154 168 174 176 177 174 179 184 182 184
136 206 171 247 210 203 231 257 263 234 239 231 283 65 312 286 289 300 336 344 16 322 55 63 9 63 120 145 158 191 182 156 149 217 156 32 353 333 286 227 247 236 195 173 150 143 140 140 145 154 152 162 166 163 171 183 185 185 182 190 186 192 186
217 226 166 264 270 206 187 211 248 307 291 7 240 265 267 292 300 351 244 125 190 42 58 96 96 137 259 207 154 199 143 12 67 65 112 105 256 314 271 259 145 302 216 167 142 138 143 144 145 150 156 164 173 178 181 186 184 189 188 195 193 198 193
257 314 170 259 303 269 246 264 302 343 331 295 293 305 319 312 311 281 347 103 205 74 83 96 108 127 159 205 177 158 183 163 195 137 112 150 224 229 264 274 92 281 241 159 139 144 144 147 149 156 155 158 171 182 188 190 183 192 193 196 191 196 200
265 220 266 274 265 304 318 335 271 255 271 278 254 270 304 308 302 325 353 312 86 6 95 89 128 132 154 132 166 198 163 184 164 191 180 173 183 234 256 128 87 245 250 172 143 148 158 156 160 163 165 164 170 182 184 189 194 198 203 201 199 191 198
270 284 283 244 253 290 304 256 256 292 273 284 321 333 319 308 336 9 336 348 95 174 133 127 124 119 144 164 163 141 201 203 193 175 181 155 168 209 333 297 118 34 346 25 135 159 153 159 160 167 173 169 164 178 187 184 190 197 203 213 206 196 197
248 265 273 270 188 219 228 275 297 287 282 272 258 301 328 294 31 313 312 347 206 138 137 121 129 159 138 178 170 197 172 202 161 141 152 174 235 282 253 324 41 30 325 250 146 186 159 165 166 163 175 169 175 178 184 186 197 197 196 198 235 203 167
263 253 256 284 278 315 311 292 269 236 241 270 266 272 337 308 59 316 30 329 142 183 151 140 141 138 165 161 188 234 174 173 166 167 179 199 217 221 202 45 83 91 244 334 322 227 176 185 168 160 171 170 174 177 180 192 193 196 100 158 88 92 216
275 282 326 311 266 241 249 259 261 294 310 300 293 288 261 282 2 326 74 302 341 156 165 174 159 176 186 182 208 212 174 167 163 169 208 211 213 171 57 99 115 142 189 130 322 307 296 196 177 169 171 164 172 164 160 154 184 129 115 109 150 165 167
257 258 254 252 269 277 281 288 289 271 245 239 246 265 291 0 288 282 167 345 310 122 182 180 173 169 193 194 203 207 174 170 201 170 189 223 225 163 142 117 126 157 204 142 208 217 269 286 197 156 156 175 158 141 147 144 146 149 159 171 189 175 175
266 273 271 267 268 265 272 275 279 280 281 282 290 285 273 269 286 322 318 261 265 297 104 142 117 159 177 184 193 186 176 183 183 188 195 198 218 191 164 152 152 153 187 156 133 10 346 307 9 280 198 167 134 131 153 162 167 186 174 178 169 151 173
295 290 285 284 277 268 258 258 256 254 264 270 255 246 272 284 280 243 247 336 335 4 135 152 158 154 159 173 171 165 160 193 180 208 201 203 225 191 177 166 152 163 178 142 109 34 242 230 201 186 190 166 93 83 196 172 208 180 152 135 129 154 180
265 263 265 267 271 286 292 285 271 261 256 263 273 279 246 230 273 298 317 336 309 345 142 120 94 116 133 140 155 172 164 177 186 206 217 216 214 216 176 191 146 156 135 91 110 161 185 200 210 185 156 103 131 185 211 183 205 165 161 144 178 175 184
267 268 279 282 283 271 264 261 260 268 276 268 254 264 263 205 242 262 271 267 269 98 56 107 133 135 142 152 168 161 177 192 178 209 213 205 218 182 150 140 138 125 105 105 180 191 181 187 170 156 186 159 172 168 191 194 196 163 168 171 177 186 183
268 275 280 281 275 272 263 264 266 259 256 262 268 263 280 280 245 261 270 316 37 51 77 281 142 143 151 160 174 159 173 193 176 209 238 225 180 165 137 144 145 102 79 116 188 197 180 218 200 177 173 181 163 176 174 186 179 174 174 170 171 167 140
276 279 277 284 280 256 253 270 286 280 263 262 258 253 244 243 222 249 267 293 328 323 285 255 135 156 143 153 157 164 176 188 198 206 194 268 142 144 142 150 132 109 120 201 235 190 167 203 222 182 191 214 166 171 165 177 179 180 183 181 171 160 170
268 269 269 269 263 267 290 283 281 299 313 309 290 290 278 256 220 215 213 220 210 149 123 2 100 129 130 147 154 175 166 185 198 237 193 198 143 138 115 120 111 107 145 191 192 188 163 192 195 197 197 207 172 125 160 190 162 165 185 183 190 174 165
262 257 258 262 260 287 283 276 276 276 276 279 288 269 240 233 250 200 225 212 226 257 232 187 127 141 147 160 151 174 172 194 202 224 174 127 104 108 130 125 110 122 152 184 183 168 153 158 177 195 189 188 180 173 170 177 172 162 170 194 161 194 162
255 255 253 258 276 264 260 266 260 260 258 258 268 288 285 272 243 266 263 268 273 256 245 108 135 147 150 155 170 182 184 196 209 229 178 147 153 174 161 144 107 125 158 181 172 139 168 170 166 161 156 173 178 175 187 178 177 185 168 170 151 189 332
250 257 260 255 245 250 248 256 276 287 267 260 256 253 273 273 274 270 276 249 221 191 250 133 97 82 272 169 167 188 193 208 214 230 142 136 170 170 175 114 102 125 148 167 140 152 174 172 169 162 160 171 182 173 182 172 183 195 178 185 168 156 168
239 241 250 252 261 260 256 266 258 255 254 256 250 246 247 189 265 246 264 255 171 170 97 90 113 160 245 200 207 190 204 199 225 182 109 166 178 170 156 130 133 128 141 151 147 167 168 171 179 173 168 178 179 183 169 181 191 203 197 206 179 155 124
245 262 249 245 238 257 244 231 231 250 269 351 312 243 218 10 336 53 37 8 316 132 118 134 145 227 262 139 186 166 193 207 219 114 281 177 178 117 117 137 129 123 128 134 147 162 172 169 171 173 174 180 189 192 181 178 194 204 220 196 172 120 121
232 230 251 268 264 273 265 255 322 307 172 247 260 255 70 326 343 67 64 49 8 116 131 152 189 182 52 136 170 150 181 207 151 128 164 227 150 150 145 113 121 133 146 154 152 162 172 169 167 167 168 181 171 184 176 185 197 187 165 121 66 91 117
235 232 249 257 265 43 347 332 258 324 119 219 228 76 254 335 33 40 43 75 95 101 81 187 140 87 110 118 124 172 177 228 131 183 161 157 116 107 110 123 137 149 143 135 150 153 162 158 163 156 170 166 156 165 176 207 86 97 93 79 129 151 135
244 242 244 239 252 349 333 340 235 19 307 44 3 17 35 24 37 49 57 48 45 358 131 118 98 148 133 149 148 152 143 212 244 142 141 118 121 127 129 138 142 130 129 140 144 149 155 152 156 154 160 158 151 144 191 135 98 89 75 75 91 105 128
276 244 242 247 42 257 6 354 0 72 72 27 37 353 33 23 10 18 89 56 15 27 24 11 96 116 132 167 231 165 137 202 236 151 152 124 131 135 153 150 149 138 138 138 141 147 148 143 139 145 176 150 141 143 109 74 75 63 47 99 91 124 115
273 302 354 106 180 243 345 309 228 55 54 45 15 39 24 4 22 8 350 45 10 359 13 312 61 152 170 259 240 245 167 188 185 154 142 133 146 151 161 149 138 144 143 144 146 142 146 141 129 139 94 13 88 144 97 80 80 106 152 219 108 125 105
266 272 264 145 210 256 240 40 2 104 73 20 16 17 33 9 16 336 319 324 311 302 137 294 211 267 283 243 240 249 126 153 142 154 146 139 154 155 145 136 143 141 140 146 149 144 144 138 126 131 114 84 96 68 45 108 171 146 25 254 182 135 125
273 239 177 219 218 152 277 330 49 23 24 353 356 4 357 0 330 318 302 286 293 281 263 244 284 255 235 253 224 157 147 190 159 161 147 156 159 163 149 140 138 140 147 152 153 150 145 151 143 140 132 159 106 77 229 253 215 137 122 221 247 199 157
272 293 318 325 358 321 264 350 90 77 41 341 337 344 343 336 345 335 333 306 275 276 260 246 212 228 230 247 140 169 156 186 136 150 152 153 163 149 137 142 144 147 154 160 155 161 153 158 159 154 136 143 61 76 331 291 313 41 138 151 250 201 207
278 256 43 339 307 358 343 22 32 44 353 351 329 346 336 344 348 352 331 322 289 266 263 252 230 213 223 228 163 173 126 117 116 134 141 152 167 143 147 152 154 154 167 161 163 167 161 149 149 152 167 153 46 328 288 311 331 309 317 308 286 270 239
274 280 246 3 347 283 343 322 306 324 340 317 338 340 347 351 346 348 340 328 315 299 271 258 219 208 205 217 174 165 159 153 152 166 143 158 168 160 158 157 160 157 163 160 158 156 142 141 153 158 172 159 173 243 274 257 253 279 268 256 268 260 264
281 342 309 220 199 189 220 241 285 307 305 320 325 339 348 352 347 355 341 334 324 309 260 242 177 184 198 179 157 154 146 154 162 156 148 161 167 168 166 163 156 159 159 162 149 153 147 145 152 160 171 166 194 190 222 238 257 279 283 287 277 261 238
251 228 59 316 312 176 257 287 274 284 279 285 290 323 349 347 358 351 343 338 337 334 312 236 194 189 188 180 173 182 158 154 159 165 160 163 172 167 172 161 160 160 156 160 157 154 139 150 154 154 173 168 208 173 176 216 231 249 260 269 281 289 348
230 163 215 284 313 291 267 274 286 302 311 41 314 321 335 339 6 355 356 356 352 350 341 69 156 154 148 142 159 148 161 172 163 170 159 167 167 171 174 165 164 158 159 163 151 161 152 154 156 168 181 184 185 171 170 227 221 216 218 243 263 282 293